| time (UTC) | temp C | wind direction | speed KPH | gust KPH | rain 1hr cm | rain 24hr cm | rain mn cm | humidity % | barometer mb |
| 20260506231617 | 7 | 343 | 8.0 | 9.7 | 0.00 | 1.65 | 1.65 | 97 | 1011.6 |
| 20260506231115 | 7 | 346 | 6.4 | 9.7 | 0.00 | 1.65 | 1.65 | 97 | 1011.5 |
| 20260506230612 | 7 | 41 | 1.6 | 3.2 | 0.00 | 1.65 | 1.65 | 97 | 1011.5 |
| 20260506230109 | 7 | 357 | 8.0 | 9.7 | 0.00 | 1.65 | 1.65 | 97 | 1011.5 |
| 20260506225605 | 7 | 30 | 6.4 | 8.0 | 0.00 | 1.65 | 1.65 | 97 | 1011.4 |
| 20260506225101 | 8 | 43 | 4.8 | 4.8 | 0.00 | 1.65 | 1.65 | 97 | 1011.4 |
| 20260506224558 | 8 | 327 | 8.0 | 9.7 | 0.00 | 1.65 | 1.65 | 98 | 1011.3 |
| 20260506224055 | 8 | 299 | 12.9 | 14.5 | 0.00 | 1.65 | 1.65 | 98 | 1010.8 |
| 20260506223551 | 8 | 17 | 8.0 | 11.3 | 0.00 | 1.65 | 1.65 | 99 | 1010.8 |
| 20260506223047 | 8 | 305 | 6.4 | 8.0 | 0.00 | 1.65 | 1.65 | 99 | 1010.6 |
| 20260506222544 | 8 | 85 | 3.2 | 3.2 | 0.00 | 1.65 | 1.65 | 99 | 1010.6 |
| 20260506222041 | 8 | 63 | 1.6 | 1.6 | 0.00 | 1.65 | 1.65 | 99 | 1010.5 |
| 20260506221538 | 8 | 345 | 3.2 | 3.2 | 0.00 | 1.65 | 1.65 | 99 | 1010.7 |
| 20260506221036 | 8 | 328 | 4.8 | 4.8 | 0.00 | 1.65 | 1.65 | 99 | 1010.5 |
| 20260506220532 | 8 | 13 | 11.3 | 12.9 | 0.00 | 1.65 | 1.65 | 98 | 1010.6 |
| 20260506220028 | 8 | 340 | 9.7 | 16.1 | 0.00 | 1.65 | 1.65 | 99 | 1010.5 |
| 20260506215525 | 8 | 326 | 3.2 | 3.2 | 0.00 | 1.65 | 1.65 | 99 | 1010.5 |
| 20260506215020 | 8 | 51 | 8.0 | 9.7 | 0.00 | 1.65 | 1.65 | 98 | 1010.2 |
| 20260506214518 | 8 | 356 | 9.7 | 11.3 | 0.00 | 1.65 | 1.65 | 98 | 1010.3 |
| 20260506214015 | 8 | 349 | 16.1 | 17.7 | 0.00 | 1.65 | 1.65 | 98 | 1010.2 |
| 20260506213513 | 8 | 15 | 9.7 | 12.9 | 0.00 | 1.65 | 1.65 | 98 | 1010.0 |
| 20260506213010 | 8 | 17 | 12.9 | 14.5 | 0.00 | 1.65 | 1.65 | 98 | 1010.1 |
| 20260506212506 | 8 | 308 | 9.7 | 11.3 | 0.13 | 1.65 | 1.65 | 99 | 1010.1 |
| 20260506212001 | 8 | 340 | 9.7 | 9.7 | 0.13 | 1.65 | 1.65 | 98 | 1009.7 |
| 20260506211456 | 8 | 345 | 11.3 | 12.9 | 0.00 | 1.63 | 1.63 | 98 | 1009.3 |
| 20260506210949 | 9 | 338 | 6.4 | 9.7 | 0.00 | 1.63 | 1.63 | 99 | 1009.3 |
| 20260506210445 | 9 | 346 | 8.0 | 11.3 | 0.00 | 1.63 | 1.63 | 99 | 1009.1 |
| 20260506205942 | 9 | 330 | 8.0 | 9.7 | 0.00 | 1.63 | 1.63 | 99 | 1009.4 |
| 20260506205438 | 10 | 333 | 6.4 | 8.0 | 0.00 | 1.63 | 1.63 | 99 | 1009.0 |
| 20260506204934 | 10 | 350 | 3.2 | 3.2 | 0.00 | 1.63 | 1.63 | 99 | 1009.0 |
| 20260506204432 | 10 | 339 | 9.7 | 11.3 | 0.00 | 1.63 | 1.63 | 98 | 1008.5 |
| 20260506203929 | 10 | 16 | 4.8 | 8.0 | 0.00 | 1.63 | 1.63 | 98 | 1008.7 |
| 20260506203427 | 10 | 2 | 8.0 | 9.7 | 0.00 | 1.63 | 1.63 | 98 | 1008.5 |
| 20260506202923 | 10 | 314 | 9.7 | 12.9 | 0.00 | 1.63 | 1.63 | 98 | 1008.7 |
| 20260506202421 | 10 | 5 | 9.7 | 12.9 | 0.00 | 1.63 | 1.63 | 98 | 1008.4 |
| 20260506201917 | 10 | 337 | 6.4 | 8.0 | 0.00 | 1.63 | 1.63 | 99 | 1008.2 |
| 20260506201414 | 10 | 45 | 8.0 | 11.3 | 0.00 | 1.63 | 1.63 | 98 | 1008.2 |
| 20260506200911 | 11 | 2 | 11.3 | 12.9 | 0.00 | 1.63 | 1.63 | 98 | 1008.2 |
| 20260506200407 | 11 | 1 | 4.8 | 8.0 | 0.00 | 1.63 | 1.63 | 98 | 1008.4 |
| 20260506195904 | 11 | 347 | 14.5 | 16.1 | 0.00 | 1.63 | 1.63 | 98 | 1008.3 |
| 20260506195401 | 12 | 319 | 14.5 | 17.7 | 0.00 | 1.63 | 1.63 | 99 | 1008.2 |
| 20260506194858 | 15 | 357 | 16.1 | 22.5 | 0.18 | 1.63 | 1.63 | 98 | 1007.5 |
| 20260506194354 | 15 | 93 | 1.6 | 3.2 | 0.00 | 1.60 | 1.60 | 99 | 1007.5 |
| 20260506193852 | 15 | 116 | 1.6 | 1.6 | 0.00 | 1.60 | 1.60 | 99 | 1007.6 |
| 20260506193349 | 15 | 123 | 3.2 | 4.8 | 0.00 | 1.60 | 1.60 | 99 | 1007.4 |
| 20260506192845 | 14 | 128 | 4.8 | 4.8 | 0.00 | 1.60 | 1.60 | 99 | 1007.4 |
| 20260506192342 | 15 | 90 | 1.6 | 1.6 | 0.00 | 1.60 | 1.60 | 99 | 1007.4 |
| 20260506191839 | 15 | 127 | 3.2 | 3.2 | 0.00 | 1.60 | 1.60 | 99 | 1007.4 |
| 20260506191335 | 14 | 101 | 1.6 | 1.6 | 0.00 | 1.60 | 1.60 | 99 | 1007.5 |
| 20260506190832 | 15 | 115 | 4.8 | 4.8 | 0.00 | 1.60 | 1.60 | 99 | 1007.7 |
| 20260506190328 | 14 | 85 | 1.6 | 1.6 | 0.00 | 1.60 | 1.60 | 99 | 1007.4 |
| 20260506185825 | 14 | 148 | 6.4 | 8.0 | 0.00 | 1.60 | 1.60 | 99 | 1007.6 |
| 20260506185322 | 14 | 132 | 4.8 | 4.8 | 0.00 | 1.60 | 1.60 | 99 | 1007.6 |
| 20260506184819 | 14 | 140 | 4.8 | 4.8 | 0.00 | 1.60 | 1.60 | 99 | 1007.7 |
| 20260506184317 | 14 | 114 | 4.8 | 4.8 | 0.00 | 1.60 | 1.60 | 99 | 1007.7 |
| 20260506183814 | 14 | 175 | 6.4 | 8.0 | 0.00 | 1.60 | 1.60 | 99 | 1008.0 |
| 20260506183309 | 14 | 127 | 4.8 | 4.8 | 0.00 | 1.60 | 1.60 | 99 | 1008.0 |
| 20260506182806 | 14 | 107 | 4.8 | 4.8 | 0.00 | 1.60 | 1.60 | 99 | 1008.0 |
| 20260506182306 | 14 | 96 | 4.8 | 4.8 | 0.00 | 1.60 | 1.60 | 99 | 1007.6 |
| 20260506181801 | 14 | 124 | 8.0 | 9.7 | 0.00 | 1.60 | 1.60 | 99 | 1007.8 |
| 20260506181259 | 14 | 134 | 3.2 | 3.2 | 0.00 | 1.60 | 1.60 | 99 | 1007.6 |
| 20260506180756 | 14 | 190 | 6.4 | 8.0 | 0.00 | 1.60 | 1.60 | 99 | 1007.8 |
| 20260506180251 | 14 | 154 | 6.4 | 8.0 | 0.00 | 1.60 | 1.60 | 99 | 1007.7 |
| 20260506175748 | 14 | 171 | 6.4 | 9.7 | 0.00 | 1.60 | 1.60 | 99 | 1007.7 |
| 20260506175245 | 14 | 121 | 3.2 | 3.2 | 0.00 | 1.60 | 1.60 | 99 | 1007.8 |
| 20260506174742 | 14 | 111 | 11.3 | 14.5 | 0.00 | 1.60 | 1.60 | 99 | 1008.0 |
| 20260506174239 | 14 | 151 | 6.4 | 8.0 | 0.00 | 1.60 | 1.60 | 99 | 1007.7 |
| 20260506173737 | 14 | 111 | 3.2 | 3.2 | 0.00 | 1.60 | 1.60 | 99 | 1008.0 |
| 20260506173234 | 14 | 152 | 8.0 | 9.7 | 0.00 | 1.60 | 1.60 | 99 | 1008.0 |
| 20260506172730 | 14 | 156 | 4.8 | 4.8 | 0.13 | 1.60 | 1.60 | 99 | 1007.8 |
| 20260506172227 | 13 | 121 | 4.8 | 4.8 | 0.30 | 1.60 | 1.60 | 99 | 1008.0 |
| 20260506171725 | 13 | 134 | 3.2 | 3.2 | 0.18 | 1.57 | 1.57 | 99 | 1008.1 |
| 20260506171222 | 13 | 210 | 4.8 | 4.8 | 0.18 | 1.55 | 1.55 | 99 | 1008.2 |
| 20260506170719 | 13 | 177 | 6.4 | 8.0 | 0.18 | 1.55 | 1.55 | 99 | 1008.1 |
| 20260506170216 | 13 | 135 | 6.4 | 8.0 | 0.13 | 1.52 | 1.52 | 99 | 1008.1 |
| 20260506165715 | 13 | 107 | 4.8 | 8.0 | 0.13 | 1.52 | 1.52 | 99 | 1008.3 |
| 20260506165211 | 13 | 114 | 4.8 | 4.8 | 0.00 | 1.50 | 1.50 | 99 | 1008.4 |
| 20260506164708 | 13 | 118 | 4.8 | 4.8 | 0.00 | 1.50 | 1.50 | 99 | 1008.4 |
| 20260506164205 | 13 | 89 | 8.0 | 9.7 | 0.00 | 1.50 | 1.50 | 99 | 1008.0 |
| 20260506163701 | 13 | 135 | 3.2 | 3.2 | 0.00 | 1.50 | 1.50 | 99 | 1008.3 |
| 20260506163156 | 13 | 194 | 8.0 | 9.7 | 0.00 | 1.50 | 1.50 | 99 | 1008.3 |
| 20260506162653 | 13 | 128 | 8.0 | 9.7 | 0.00 | 1.50 | 1.50 | 99 | 1008.2 |
| 20260506162151 | 13 | 129 | 8.0 | 12.9 | 0.00 | 1.50 | 1.50 | 99 | 1008.2 |
| 20260506161648 | 13 | 154 | 4.8 | 8.0 | 0.18 | 1.50 | 1.50 | 99 | 1008.4 |
| 20260506161144 | 13 | 144 | 4.8 | 4.8 | 0.18 | 1.50 | 1.50 | 99 | 1008.3 |
| 20260506160642 | 13 | 132 | 6.4 | 8.0 | 0.13 | 1.47 | 1.47 | 99 | 1008.2 |
| 20260506160138 | 13 | 128 | 4.8 | 4.8 | 0.13 | 1.47 | 1.47 | 99 | 1008.4 |
| 20260506155638 | 13 | 95 | 8.0 | 11.3 | 0.30 | 1.45 | 1.45 | 99 | 1008.5 |
| 20260506155134 | 13 | 119 | 3.2 | 3.2 | 0.43 | 1.32 | 1.32 | 99 | 1008.5 |
| 20260506153236 | 13 | 110 | 6.4 | 8.0 | 0.30 | 1.30 | 1.30 | 99 | 1008.7 |
| 20260506152733 | 13 | 117 | 3.2 | 3.2 | 0.30 | 1.27 | 1.27 | 99 | 1008.6 |
| 20260506152230 | 13 | 99 | 3.2 | 3.2 | 0.36 | 1.24 | 1.24 | 99 | 1008.7 |
| 20260506151730 | 13 | 108 | 4.8 | 4.8 | 0.30 | 1.22 | 1.22 | 99 | 1008.9 |
| 20260506151225 | 13 | 91 | 3.2 | 3.2 | 0.30 | 1.19 | 1.19 | 99 | 1008.5 |
| 20260506150722 | 13 | 141 | 4.8 | 4.8 | 0.30 | 1.17 | 1.17 | 99 | 1008.5 |
| 20260506150219 | 13 | 154 | 4.8 | 4.8 | 0.30 | 1.14 | 1.14 | 99 | 1008.3 |
| 20260506145716 | 13 | 129 | 4.8 | 4.8 | 0.30 | 1.12 | 1.12 | 99 | 1008.4 |
| 20260506145213 | 13 | 91 | 1.6 | 1.6 | 0.43 | 1.09 | 1.09 | 99 | 1008.2 |
| 20260506144710 | 13 | 115 | 4.8 | 4.8 | 0.48 | 1.07 | 1.07 | 99 | 1008.3 |
| 20260506144207 | 13 | 110 | 4.8 | 4.8 | 0.18 | 1.02 | 1.02 | 99 | 1008.6 |
| 20260506143705 | 13 | 101 | 1.6 | 3.2 | 0.00 | 0.99 | 0.99 | 99 | 1008.5 |
| 20260506143202 | 13 | 131 | 3.2 | 3.2 | 0.00 | 0.99 | 0.99 | 99 | 1008.4 |
| 20260506142700 | 13 | 99 | 0.0 | 0.0 | 0.13 | 0.99 | 0.99 | 99 | 1008.4 |
| 20260506142158 | 12 | 112 | 3.2 | 3.2 | 0.13 | 0.99 | 0.99 | 99 | 1008.1 |
| 20260506141655 | 12 | 133 | 3.2 | 4.8 | 0.00 | 0.97 | 0.97 | 99 | 1008.3 |
| 20260506141153 | 12 | 165 | 6.4 | 8.0 | 0.18 | 0.97 | 0.97 | 99 | 1008.2 |
| 20260506140651 | 12 | 140 | 9.7 | 12.9 | 0.30 | 0.97 | 0.97 | 99 | 1008.2 |
| 20260506140148 | 12 | 89 | 3.2 | 3.2 | 0.30 | 0.94 | 0.94 | 99 | 1008.5 |
| 20260506135645 | 12 | 103 | 0.0 | 0.0 | 0.36 | 0.91 | 0.91 | 99 | 1008.7 |
| 20260506135141 | 12 | 108 | 0.0 | 0.0 | 0.30 | 0.89 | 0.89 | 99 | 1008.6 |
| 20260506134638 | 12 | 93 | 0.0 | 0.0 | 0.30 | 0.86 | 0.86 | 99 | 1008.8 |
| 20260506134133 | 12 | 107 | 0.0 | 0.0 | 0.30 | 0.84 | 0.84 | 99 | 1008.8 |
| 20260506133631 | 12 | 130 | 0.0 | 0.0 | 0.30 | 0.81 | 0.81 | 99 | 1009.3 |
| 20260506133128 | 12 | 139 | 0.0 | 0.0 | 0.48 | 0.79 | 0.79 | 99 | 1009.4 |
| 20260506132626 | 12 | 108 | 0.0 | 0.0 | 0.43 | 0.76 | 0.76 | 99 | 1009.4 |
| 20260506132122 | 12 | 105 | 0.0 | 0.0 | 0.30 | 0.71 | 0.71 | 99 | 1009.4 |
| 20260506131620 | 12 | 101 | 0.0 | 0.0 | 0.48 | 0.69 | 0.69 | 99 | 1009.4 |
| 20260506131115 | 12 | 101 | 0.0 | 0.0 | 0.43 | 0.66 | 0.66 | 99 | 1009.6 |
| 20260506130613 | 12 | 101 | 0.0 | 0.0 | 0.30 | 0.61 | 0.61 | 99 | 1009.4 |
| 20260506130110 | 12 | 101 | 0.0 | 0.0 | 0.36 | 0.58 | 0.58 | 99 | 1009.5 |
| 20260506125608 | 12 | 97 | 0.0 | 0.0 | 0.48 | 0.56 | 0.56 | 99 | 1009.4 |
| 20260506125106 | 12 | 91 | 0.0 | 0.0 | 0.30 | 0.51 | 0.51 | 99 | 1009.4 |
| 20260506124603 | 12 | 90 | 0.0 | 0.0 | 0.30 | 0.48 | 0.48 | 99 | 1009.3 |
| 20260506124101 | 12 | 90 | 0.0 | 0.0 | 0.30 | 0.46 | 0.46 | 99 | 1009.2 |
| 20260506123558 | 12 | 89 | 0.0 | 0.0 | 0.30 | 0.43 | 0.43 | 99 | 1009.1 |
| 20260506123057 | 12 | 88 | 0.0 | 0.0 | 0.30 | 0.41 | 0.41 | 99 | 1009.0 |
| 20260506122553 | 12 | 89 | 0.0 | 0.0 | 0.13 | 0.38 | 0.38 | 99 | 1008.9 |
| 20260506122051 | 12 | 93 | 0.0 | 0.0 | 0.18 | 0.36 | 0.36 | 99 | 1009.0 |
| 20260506121549 | 12 | 93 | 0.0 | 0.0 | 0.18 | 0.36 | 0.36 | 99 | 1009.2 |
| 20260506121044 | 12 | 93 | 0.0 | 0.0 | 0.13 | 0.33 | 0.33 | 99 | 1009.1 |
| 20260506120543 | 12 | 93 | 0.0 | 0.0 | 0.13 | 0.33 | 0.33 | 99 | 1009.1 |
| 20260506120040 | 12 | 94 | 0.0 | 0.0 | 0.00 | 0.30 | 0.30 | 99 | 1009.4 |
| 20260506115538 | 12 | 87 | 0.0 | 0.0 | 0.18 | 0.30 | 0.30 | 99 | 1009.2 |
| 20260506115036 | 12 | 87 | 0.0 | 0.0 | 0.18 | 0.30 | 0.30 | 99 | 1009.3 |
| 20260506114533 | 12 | 87 | 0.0 | 0.0 | 0.18 | 0.28 | 0.28 | 99 | 1009.4 |
| 20260506114032 | 11 | 83 | 0.0 | 0.0 | 0.18 | 0.28 | 0.28 | 99 | 1009.4 |
| 20260506113529 | 11 | 101 | 0.0 | 0.0 | 0.13 | 0.25 | 0.25 | 99 | 1009.0 |
| 20260506113026 | 11 | 80 | 0.0 | 0.0 | 0.30 | 0.25 | 0.25 | 99 | 1009.2 |
| 20260506112522 | 11 | 91 | 0.0 | 0.0 | 0.18 | 0.23 | 0.23 | 99 | 1009.2 |
| 20260506112020 | 11 | 94 | 0.0 | 0.0 | 0.13 | 0.20 | 0.20 | 99 | 1009.1 |
| 20260506111518 | 11 | 94 | 0.0 | 0.0 | 0.30 | 0.20 | 0.20 | 99 | 1009.0 |
| 20260506111015 | 11 | 112 | 0.0 | 0.0 | 0.30 | 0.18 | 0.18 | 99 | 1009.2 |
| 20260506110512 | 11 | 88 | 0.0 | 0.0 | 0.13 | 0.15 | 0.15 | 99 | 1009.3 |
| 20260506110009 | 11 | 78 | 0.0 | 0.0 | 0.18 | 0.13 | 0.13 | 99 | 1009.4 |
| 20260506105505 | 11 | 77 | 0.0 | 0.0 | 0.18 | 0.13 | 0.13 | 99 | 1009.4 |
| 20260506105003 | 11 | 77 | 0.0 | 0.0 | 0.13 | 0.10 | 0.10 | 99 | 1009.3 |
| 20260506104501 | 11 | 77 | 0.0 | 0.0 | 0.13 | 0.10 | 0.10 | 99 | 1009.3 |
| 20260506103959 | 11 | 72 | 0.0 | 0.0 | 0.00 | 0.08 | 0.08 | 99 | 1009.3 |
| 20260506103455 | 11 | 79 | 0.0 | 0.0 | 0.18 | 0.08 | 0.08 | 99 | 1009.2 |
| 20260506102952 | 11 | 79 | 0.0 | 0.0 | 0.18 | 0.08 | 0.08 | 99 | 1009.1 |
| 20260506102450 | 11 | 78 | 0.0 | 0.0 | 0.00 | 0.05 | 0.05 | 99 | 1009.2 |
| 20260506101947 | 11 | 77 | 0.0 | 0.0 | 0.00 | 0.05 | 0.05 | 99 | 1009.0 |
| 20260506101444 | 11 | 75 | 0.0 | 0.0 | 0.13 | 0.05 | 0.05 | 99 | 1008.9 |
| 20260506100941 | 11 | 60 | 0.0 | 0.0 | 0.13 | 0.05 | 0.05 | 99 | 1008.8 |
| 20260506100439 | 11 | 69 | 0.0 | 0.0 | 0.00 | 0.03 | 0.03 | 99 | 1008.9 |
| 20260506095937 | 11 | 78 | 0.0 | 0.0 | 0.00 | 0.03 | 0.03 | 99 | 1008.7 |
| 20260506095435 | 11 | 77 | 0.0 | 0.0 | 0.18 | 0.03 | 0.03 | 99 | 1008.8 |
| 20260506094931 | 11 | 78 | 0.0 | 0.0 | 0.18 | 0.03 | 0.03 | 99 | 1008.8 |
| 20260506094430 | 11 | 78 | 0.0 | 0.0 | 0.00 | 0.00 | 0.00 | 99 | 1008.8 |
| 20260506093927 | 11 | 78 | 0.0 | 0.0 | 0.00 | 0.00 | 0.00 | 99 | 1008.9 |
| 20260506093425 | 11 | 53 | 0.0 | 0.0 | 0.00 | 0.00 | 0.00 | 99 | 1008.8 |
| 20260506092923 | 11 | 32 | 0.0 | 0.0 | 0.00 | 0.00 | 0.00 | 99 | 1008.7 |
| 20260506092420 | 11 | 75 | 0.0 | 0.0 | 0.00 | 0.00 | 0.00 | 99 | 1008.9 |
| 20260506091916 | 11 | 80 | 0.0 | 0.0 | 0.00 | 0.00 | 0.00 | 99 | 1008.7 |
| 20260506091415 | 11 | 80 | 0.0 | 0.0 | 0.00 | 0.00 | 0.00 | 99 | 1008.6 |
| 20260506090912 | 11 | 80 | 0.0 | 0.0 | 0.00 | 0.00 | 0.00 | 99 | 1008.5 |
| 20260506090409 | 11 | 80 | 0.0 | 0.0 | 0.00 | 0.00 | 0.00 | 99 | 1008.6 |
| 20260506085906 | 11 | 80 | 0.0 | 0.0 | 0.00 | 0.00 | 0.00 | 99 | 1008.7 |
| 20260506085403 | 11 | 80 | 0.0 | 0.0 | 0.00 | 0.00 | 0.00 | 99 | 1008.7 |
| 20260506084859 | 11 | 60 | 1.6 | 1.6 | 0.00 | 0.00 | 0.00 | 99 | 1008.7 |
| 20260506084355 | 11 | 80 | 0.0 | 0.0 | 0.00 | 0.00 | 0.00 | 99 | 1009.0 |
| 20260506083852 | 11 | 80 | 0.0 | 0.0 | 0.00 | 0.00 | 0.00 | 99 | 1008.8 |
| 20260506083350 | 11 | 80 | 0.0 | 0.0 | 0.00 | 0.00 | 0.00 | 99 | 1008.9 |
| 20260506082847 | 11 | 77 | 0.0 | 1.6 | 0.00 | 0.00 | 0.00 | 99 | 1009.1 |
| 20260506082344 | 11 | 70 | 1.6 | 1.6 | 0.00 | 0.00 | 0.00 | 99 | 1008.9 |
| 20260506081839 | 11 | 79 | 1.6 | 1.6 | 0.00 | 0.00 | 0.00 | 99 | 1008.6 |
| 20260506081338 | 11 | 79 | 0.0 | 0.0 | 0.00 | 0.00 | 0.00 | 99 | 1008.7 |
| 20260506080835 | 11 | 79 | 0.0 | 0.0 | 0.00 | 0.00 | 0.00 | 99 | 1008.6 |
| 20260506080331 | 11 | 69 | 1.6 | 1.6 | 0.00 | 0.00 | 0.00 | 99 | 1008.6 |
| 20260506073315 | 11 | 82 | 0.0 | 0.0 | 0.00 | 0.00 | 0.00 | 99 | 1008.8 |
| 20260506072812 | 11 | 77 | 0.0 | 0.0 | 0.00 | 0.00 | 0.00 | 99 | 1008.9 |
| 20260506072309 | 11 | 83 | 1.6 | 3.2 | 0.00 | 0.00 | 0.00 | 99 | 1009.0 |
| 20260506071807 | 11 | 84 | 0.0 | 1.6 | 0.00 | 0.00 | 0.00 | 99 | 1008.9 |
| 20260506071306 | 11 | 109 | 0.0 | 0.0 | 0.00 | 0.00 | 0.00 | 99 | 1008.9 |
| 20260506070802 | 11 | 93 | 1.6 | 4.8 | 0.00 | 0.00 | 0.00 | 99 | 1009.0 |
| 20260506070259 | 11 | 82 | 0.0 | 0.0 | 0.00 | 0.00 | 0.00 | 99 | 1009.0 |
| 20260506062236 | 11 | 78 | 0.0 | 0.0 | 0.00 | 0.00 | 0.00 | 99 | 1009.3 |
| 20260506061731 | 11 | 54 | 1.6 | 1.6 | 0.00 | 0.00 | 0.00 | 99 | 1009.3 |
| 20260506061230 | 11 | 79 | 0.0 | 1.6 | 0.00 | 0.00 | 0.00 | 99 | 1009.4 |
| 20260506060728 | 11 | 78 | 1.6 | 3.2 | 0.00 | 0.00 | 0.00 | 99 | 1009.7 |
| 20260506060225 | 11 | 88 | 1.6 | 1.6 | 0.00 | 0.00 | 0.00 | 99 | 1009.8 |
| 20260506051156 | 12 | 64 | 1.6 | 1.6 | 0.00 | 0.00 | 0.00 | 99 | 1010.4 |
| 20260506050654 | 12 | 14 | 1.6 | 3.2 | 0.00 | 0.00 | 0.00 | 99 | 1010.2 |
| 20260506050146 | 11 | 72 | 1.6 | 1.6 | 0.00 | 0.00 | 0.00 | 99 | 1010.1 |
| 20260506044637 | 12 | 40 | 1.6 | 3.2 | 0.00 | 0.00 | 0.00 | 99 | 1010.1 |
| 20260506044134 | 12 | 35 | 3.2 | 3.2 | 0.00 | 0.00 | 0.00 | 99 | 1010.3 |
| 20260506043631 | 12 | 63 | 1.6 | 1.6 | 0.00 | 0.00 | 0.00 | 99 | 1010.4 |
| 20260506043129 | 12 | 62 | 1.6 | 1.6 | 0.00 | 0.00 | 0.00 | 99 | 1010.3 |
| 20260506042628 | 12 | 90 | 0.0 | 0.0 | 0.00 | 0.00 | 0.00 | 99 | 1010.4 |
| 20260506042125 | 12 | 67 | 0.0 | 1.6 | 0.00 | 0.00 | 0.00 | 99 | 1010.6 |
| 20260506041624 | 12 | 13 | 3.2 | 3.2 | 0.00 | 0.00 | 0.00 | 99 | 1010.4 |
| 20260506041120 | 12 | 3 | 4.8 | 4.8 | 0.00 | 0.00 | 0.00 | 99 | 1010.6 |
| 20260506040618 | 12 | 67 | 1.6 | 1.6 | 0.00 | 0.00 | 0.00 | 99 | 1010.7 |
| 20260506040115 | 12 | 70 | 0.0 | 0.0 | 0.00 | 0.15 | 0.15 | 98 | 1010.6 |
| 20260506035611 | 12 | 70 | 0.0 | 1.6 | 0.00 | 0.15 | 0.15 | 98 | 1010.6 |
| 20260506035108 | 12 | 17 | 3.2 | 3.2 | 0.00 | 0.15 | 0.15 | 98 | 1010.7 |
| 20260506034605 | 12 | 32 | 3.2 | 3.2 | 0.00 | 0.15 | 0.15 | 98 | 1010.5 |
| 20260506034102 | 12 | 68 | 1.6 | 1.6 | 0.00 | 0.15 | 0.15 | 99 | 1010.4 |
| 20260506033559 | 12 | 77 | 0.0 | 0.0 | 0.00 | 0.15 | 0.15 | 98 | 1010.6 |
| 20260506033056 | 12 | 66 | 1.6 | 1.6 | 0.00 | 0.15 | 0.15 | 98 | 1010.5 |
| 20260506032553 | 12 | 60 | 1.6 | 1.6 | 0.00 | 0.15 | 0.15 | 99 | 1010.4 |
| 20260506032050 | 12 | 57 | 1.6 | 1.6 | 0.00 | 0.15 | 0.15 | 98 | 1010.6 |
| 20260506031548 | 12 | 53 | 3.2 | 3.2 | 0.00 | 0.15 | 0.15 | 98 | 1010.4 |
| 20260506031044 | 12 | 80 | 1.6 | 1.6 | 0.00 | 0.15 | 0.15 | 98 | 1010.4 |
| 20260506030543 | 12 | 72 | 3.2 | 3.2 | 0.00 | 0.15 | 0.15 | 98 | 1010.2 |
| 20260506030040 | 13 | 113 | 1.6 | 1.6 | 0.00 | 0.15 | 0.15 | 97 | 1010.2 |
| 20260506025537 | 13 | 56 | 1.6 | 1.6 | 0.00 | 0.15 | 0.15 | 98 | 1010.4 |
| 20260506025033 | 13 | 57 | 1.6 | 1.6 | 0.00 | 0.15 | 0.15 | 98 | 1010.0 |
| 20260506024530 | 13 | 48 | 1.6 | 1.6 | 0.00 | 0.15 | 0.15 | 97 | 1010.2 |
| 20260506024026 | 13 | 41 | 3.2 | 3.2 | 0.00 | 0.15 | 0.15 | 98 | 1010.1 |
| 20260506023522 | 13 | 6 | 3.2 | 3.2 | 0.00 | 0.15 | 0.15 | 97 | 1010.1 |
| 20260506023020 | 13 | 55 | 1.6 | 1.6 | 0.00 | 0.15 | 0.15 | 97 | 1010.0 |
| 20260506022517 | 13 | 24 | 3.2 | 3.2 | 0.00 | 0.15 | 0.15 | 97 | 1010.1 |
| 20260506022015 | 13 | 60 | 1.6 | 3.2 | 0.00 | 0.15 | 0.15 | 97 | 1010.1 |
| 20260506021512 | 13 | 60 | 1.6 | 3.2 | 0.00 | 0.15 | 0.15 | 97 | 1010.1 |
| 20260506021009 | 13 | 68 | 1.6 | 1.6 | 0.00 | 0.15 | 0.15 | 97 | 1009.8 |
| 20260506020507 | 13 | 59 | 1.6 | 1.6 | 0.00 | 0.15 | 0.15 | 97 | 1009.8 |
| 20260506020004 | 14 | 71 | 0.0 | 1.6 | 0.00 | 0.15 | 0.15 | 96 | 1010.0 |
| 20260506015501 | 14 | 70 | 1.6 | 1.6 | 0.00 | 0.15 | 0.15 | 96 | 1010.0 |
| 20260506014958 | 14 | 71 | 0.0 | 0.0 | 0.00 | 0.15 | 0.15 | 96 | 1009.8 |
| 20260506014455 | 14 | 71 | 0.0 | 0.0 | 0.00 | 0.15 | 0.15 | 96 | 1010.0 |
| 20260506013951 | 14 | 71 | 1.6 | 4.8 | 0.00 | 0.15 | 0.15 | 96 | 1009.9 |
| 20260506013449 | 14 | 71 | 0.0 | 0.0 | 0.00 | 0.15 | 0.15 | 96 | 1010.0 |
| 20260506012945 | 14 | 69 | 1.6 | 3.2 | 0.00 | 0.15 | 0.15 | 96 | 1009.7 |
| 20260506012442 | 14 | 66 | 3.2 | 4.8 | 0.00 | 0.15 | 0.15 | 96 | 1009.8 |
| 20260506011939 | 15 | 80 | 0.0 | 0.0 | 0.00 | 0.15 | 0.15 | 96 | 1009.8 |
| 20260506011436 | 15 | 80 | 0.0 | 0.0 | 0.00 | 0.15 | 0.15 | 95 | 1009.7 |
| 20260506010933 | 15 | 80 | 0.0 | 0.0 | 0.00 | 0.15 | 0.15 | 95 | 1009.5 |
| 20260506010432 | 15 | 75 | 3.2 | 3.2 | 0.00 | 0.15 | 0.15 | 95 | 1009.5 |
| 20260506005927 | 15 | 82 | 0.0 | 0.0 | 0.00 | 0.15 | 0.15 | 95 | 1009.5 |
| 20260506005426 | 15 | 72 | 0.0 | 0.0 | 0.00 | 0.15 | 0.15 | 94 | 1009.6 |
| 20260506004920 | 15 | 72 | 0.0 | 0.0 | 0.00 | 0.15 | 0.15 | 94 | 1009.4 |
| 20260506004419 | 15 | 72 | 0.0 | 0.0 | 0.00 | 0.15 | 0.15 | 94 | 1009.2 |
| 20260506003914 | 15 | 72 | 3.2 | 3.2 | 0.00 | 0.15 | 0.15 | 94 | 1009.3 |
| 20260506003411 | 15 | 72 | 0.0 | 0.0 | 0.00 | 0.15 | 0.15 | 94 | 1009.3 |
| 20260506002908 | 15 | 68 | 4.8 | 4.8 | 0.00 | 0.15 | 0.15 | 94 | 1009.4 |
| 20260506002404 | 15 | 68 | 4.8 | 4.8 | 0.00 | 0.15 | 0.15 | 94 | 1009.2 |
| 20260506001859 | 16 | 73 | 4.8 | 4.8 | 0.00 | 0.15 | 0.15 | 94 | 1009.4 |
| 20260506001356 | 16 | 72 | 0.0 | 0.0 | 0.00 | 0.15 | 0.15 | 93 | 1009.3 |
| 20260506000854 | 16 | 74 | 3.2 | 3.2 | 0.00 | 0.15 | 0.15 | 93 | 1009.2 |
| 20260506000353 | 16 | 75 | 3.2 | 8.0 | 0.00 | 0.15 | 0.15 | 93 | 1009.5 |
| 20260505235848 | 16 | 66 | 3.2 | 3.2 | 0.00 | 0.15 | 0.15 | 93 | 1009.3 |
| 20260505235345 | 16 | 61 | 3.2 | 4.8 | 0.00 | 0.15 | 0.15 | 92 | 1009.5 |
| 20260505234842 | 16 | 78 | 1.6 | 1.6 | 0.00 | 0.15 | 0.15 | 92 | 1009.4 |
| 20260505234340 | 16 | 78 | 0.0 | 0.0 | 0.00 | 0.15 | 0.15 | 92 | 1009.2 |
| 20260505233836 | 16 | 78 | 1.6 | 1.6 | 0.00 | 0.15 | 0.15 | 91 | 1009.0 |
| 20260505233335 | 16 | 78 | 3.2 | 3.2 | 0.00 | 0.15 | 0.15 | 91 | 1009.3 |
| 20260505232832 | 17 | 78 | 0.0 | 0.0 | 0.00 | 0.15 | 0.15 | 90 | 1009.4 |
| 20260505232330 | 17 | 78 | 0.0 | 0.0 | 0.00 | 0.15 | 0.15 | 90 | 1009.4 |
| 20260505231825 | 17 | 78 | 0.0 | 0.0 | 0.00 | 0.15 | 0.15 | 89 | 1009.2 |